Flag for U.S.A. Weather past 2 weeks in Hollywood, California, U.S.A.

Now
61 °F

Overcast.


Feels Like: 61 °F
Forecast: 54 / 68 °F
Wind: 7 mph from South

Location: Burbank-Glendale-Pasadena Airport

Current Time: Apr 25, 2015 at 1:20:54 PM

Latest Report: Apr 25, 2015 at 12:53 PM


Visibility: 10 mi

Pressure: 29.92 "Hg

Humidity: 62%

Dew point: 48 °F

Location of HollywoodLocation

Historic Weather in Hollywood — Graph

°F

Hollywood temperature yesterday

Maximum temperature yesterday: 63 °F (at 1:53 PM)
Minimum temperature yesterday: 57 °F (at 12:53 AM)
Average temperature yesterday: 59 °F

Past Weeks' High & Low Weather Summary

 TemperatureHumidityPressure
High83 °F (Apr 17, 1:53 PM)88% (Apr 14, 3:55 AM)30.08 "Hg (Apr 14, 3:55 AM)
Low51 °F (Apr 11, 6:53 AM)7% (Apr 16, 10:53 AM)29.78 "Hg (Apr 20, 5:53 PM)
Average64 °F52%29.92 "Hg
* Reported Apr 10 11:53 AM — Apr 25 11:53 AM, Hollywood, Weather by CustomWeather, © 2015

Note: Actual official high and low records may vary slightly from our data, if they occured in-between our weather recording intervals... More about our weather records

Advertising

Hollywood weather history for previous 24 hours

 ConditionsComfort  
Time TempWeatherWind HumidityBarometerVisibility
11:53 AM
Sat, Apr 25
61 °FOvercast.12 mph58%29.94 "Hg10 mi
10:53 AM62 °FOvercast.9 mph58%29.94 "Hg10 mi
9:53 AM60 °FOvercast.7 mph65%29.95 "Hg10 mi
8:53 AM58 °FMostly cloudy.7 mph72%29.95 "Hg10 mi
7:53 AM57 °FOvercast.6 mph72%29.95 "Hg10 mi
6:53 AM56 °FOvercast.3 mph72%29.94 "Hg9 mi
5:53 AM56 °FOvercast.3 mph77%29.94 "Hg10 mi
4:53 AM57 °FOvercast.No wind74%29.93 "Hg10 mi
3:53 AM57 °FOvercast.No wind74%29.94 "Hg10 mi
2:53 AM57 °FOvercast.No wind74%29.95 "Hg10 mi
1:55 AM55 °FPassing clouds.3 mph77%29.98 "Hg10 mi
12:53 AM57 °FOvercast.No wind74%29.96 "Hg10 mi
11:53 PM
Fri, Apr 24
57 °FClear.No wind74%29.96 "Hg10 mi
10:53 PM58 °FPassing clouds.5 mph72%29.97 "Hg10 mi
9:53 PM59 °FOvercast.5 mph72%29.98 "Hg10 mi
8:53 PM59 °FOvercast.5 mph72%29.97 "Hg10 mi
7:53 PM60 °FOvercast.5 mph67%29.95 "Hg10 mi
6:53 PM60 °FOvercast.6 mph65%29.95 "Hg10 mi
5:53 PM61 °FOvercast.5 mph65%29.95 "Hg10 mi
4:53 PM62 °FOvercast.7 mph62%29.95 "Hg10 mi
3:53 PM62 °FOvercast.7 mph62%29.94 "Hg10 mi
2:53 PM62 °FOvercast.9 mph65%29.96 "Hg10 mi
1:53 PM63 °FOvercast.9 mph60%29.96 "Hg10 mi
1:00 PM63 °FMostly cloudy.6 mph64%29.99 "Hg10 mi
Weather by CustomWeather, © 2015

See weather overviewHow to use our weather pages